TimePDT,TemperatureF,Dew PointF,Humidity,Sea Level PressureIn,VisibilityMPH,Wind Direction,Wind SpeedMPH,Gust SpeedMPH,PrecipitationIn,Events,Conditions,WindDirDegrees,DateUTC
12:52 AM,71.1,45.0,39,29.86,10.0,South,9.2,-,N/A,,Clear,190,2013-04-05 07:52:00
1:52 AM,73.0,42.1,33,29.86,10.0,SW,15.0,-,N/A,,Clear,230,2013-04-05 08:52:00
2:52 AM,73.0,39.9,30,29.86,10.0,WSW,11.5,-,N/A,,Clear,250,2013-04-05 09:52:00
3:52 AM,69.1,39.9,35,29.86,10.0,SSW,8.1,-,N/A,,Clear,200,2013-04-05 10:52:00
4:52 AM,66.0,36.0,33,29.87,10.0,SW,6.9,-,N/A,,Clear,230,2013-04-05 11:52:00
5:52 AM,62.1,39.9,44,29.88,10.0,Calm,Calm,-,N/A,,Clear,0,2013-04-05 12:52:00
6:52 AM,60.1,39.9,47,29.89,10.0,WSW,4.6,-,N/A,,Clear,240,2013-04-05 13:52:00
7:52 AM,66.9,39.9,37,29.91,10.0,Calm,Calm,-,N/A,,Clear,0,2013-04-05 14:52:00
8:52 AM,72.0,39.0,30,29.92,10.0,WSW,4.6,-,N/A,,Clear,240,2013-04-05 15:52:00
9:52 AM,78.1,39.0,25,29.93,10.0,South,4.6,-,N/A,,Clear,190,2013-04-05 16:52:00
10:52 AM,80.1,39.0,23,29.92,10.0,WSW,6.9,-,N/A,,Clear,250,2013-04-05 17:52:00
11:52 AM,82.0,37.9,21,29.90,10.0,Calm,Calm,-,N/A,,Clear,0,2013-04-05 18:52:00
12:52 PM,84.9,34.0,16,29.87,10.0,Variable,4.6,-,N/A,,Clear,0,2013-04-05 19:52:00
1:52 PM,89.1,27.0,11,29.84,10.0,WNW,13.8,31.1,N/A,,Clear,290,2013-04-05 20:52:00
2:52 PM,89.1,30.0,12,29.82,10.0,WSW,13.8,24.2,N/A,,Clear,250,2013-04-05 21:52:00
3:52 PM,88.0,30.0,12,29.80,10.0,WSW,8.1,-,N/A,,Clear,250,2013-04-05 22:52:00
4:52 PM,89.1,28.9,12,29.78,10.0,SSW,5.8,-,N/A,,Clear,200,2013-04-05 23:52:00
5:52 PM,87.1,32.0,14,29.78,10.0,SSE,9.2,-,N/A,,Clear,150,2013-04-06 00:52:00
6:52 PM,84.9,28.9,13,29.78,10.0,SSW,13.8,-,N/A,,Clear,210,2013-04-06 01:52:00
7:52 PM,82.0,32.0,16,29.79,10.0,SW,10.4,-,N/A,,Clear,220,2013-04-06 02:52:00
8:52 PM,80.1,37.9,22,29.81,10.0,SW,11.5,-,N/A,,Clear,230,2013-04-06 03:52:00
9:52 PM,72.0,43.0,35,29.83,10.0,South,5.8,-,N/A,,Clear,180,2013-04-06 04:52:00
10:52 PM,72.0,45.0,38,29.83,10.0,SW,4.6,-,N/A,,Clear,220,2013-04-06 05:52:00
11:52 PM,69.1,46.0,44,29.83,10.0,SE,4.6,-,N/A,,Clear,140,2013-04-06 06:52:00